Regional Weather Roundup
Issued by NWS Jackson, KY

Home | Current Version | Previous Version | Graphics & Text | Print | Product List | Glossary On
Versions: 1 2 3 4 5 6 7 8 9 10 11 12 13 14 15 16 17 18 19 20 21 22 23 24 25 26 27 28 29 30 31 32 33 34 35 36 37 38 39 40 41 42 43 44 45 46 47 48 49 50
000
ASUS43 KJKL 290810
RWRJKL

EAST KENTUCKY HOURLY WEATHER ROUNDUP
NATIONAL WEATHER SERVICE JACKSON KY
400 AM EDT MON MAY 29 2017

NOTE: "FAIR" INDICATES FEW OR NO CLOUDS BELOW 12,000 FEET WITH
NO SIGNIFICANT WEATHER AND/OR OBSTRUCTIONS TO VISIBILITY.

* THESE REPORTS ARE NOT UNDER NWS QUALITY CONTROL AND MAY NOT
  REPORT WEATHER SUCH AS PRECIPITATION AND FOG.

KYZ079-080-083-085-087-088-110-112-115-119-120-290900
...EASTERN KENTUCKY...

CITY           SKY/WX    TMP DP  RH WIND       PRES   REMARKS
JACKSON        CLOUDY    66  62  87 CALM      29.92S
LONDON         CLOUDY    66  61  84 SW3       29.94S
SOMERSET*      CLOUDY    61  61 100 CALM      29.95R
MONTICELLO*    CLOUDY    66  63  90 W12       29.97R
WILLIAMSBURG*  CLOUDY    63  63 100 CALM      29.96R
MIDDLESBORO*   CLOUDY    64  64  99 CALM      29.96S
HARLAN APT*    CLOUDY    63  61  94 CALM      29.96R
PIKE CO APT*   CLOUDY    66  64  94 SW3       29.92F
BIG SANDY APT* CLOUDY    67  63  87 SW5       29.91F
MOREHEAD APT*  PTSUNNY   64  61  88 SW5       29.91S
ASHLAND*       CLOUDY    64  63  94 CALM      29.85S
$$

KYZ035-036-041-042-044-050-067-078-099-290900
...CENTRAL KENTUCKY...

CITY           SKY/WX    TMP DP  RH WIND       PRES   REMARKS
MT STERLING*   PTCLDY    63  63 100 W5        29.91S
FLEMING/MASON* PTCLDY    61  61  98 W6        29.89F
DANVILLE*      MOCLDY    63  61  94 SW3       29.93R
LEXINGTON      PTCLDY    64  61  90 SW6       29.91S
FRANKFORT      CLOUDY    63  60  90 SW3       29.88F
LOUISVILLE     CLOUDY    67  64  90 SW5       29.89R
LEBANON*         N/A     64  63  94 S5        29.92R
GLASGOW*       CLOUDY   N/A N/A N/A SW3       29.95R
BOWLING GREEN  CLOUDY    66  64  93 SW6       29.95R
$$

KYZ091>093-OHZ055-061-077-WVZ005-015-034-035-042-290900
...SOUTHERN OHIO/WEST VIRGINIA...

CITY           SKY/WX    TMP DP  RH WIND       PRES   REMARKS
COVINGTON      MOCLDY    60  59  96 SW5       29.86F
COLUMBUS       CLEAR     63  62  97 W6        29.82S
DAYTON         CLEAR     60  59  96 SW8       29.85S
WILMINGTON     CLEAR     60  60 100 SW6       29.84F FOG
HUNTINGTON     MOCLDY    66  62  87 SW5       29.87R
CHARLESTON     CLOUDY    68  61  78 SW8       29.87R
PINEVILLE*     CLOUDY    64  62  96 MISG      29.98S
BECKLEY        CLOUDY    63  58  83 W5        29.94S
BLUEFIELD      CLOUDY    61  56  83 W6        29.97S
LOGAN CO APT*  CLOUDY    66  61  82 SW6       29.91S
$$

VAZ002-007-008-TNZ017-027-036-066-071-290900
...SOUTHWEST VIRGINIA/EAST TENNESSEE...

CITY           SKY/WX    TMP DP  RH WIND       PRES   REMARKS
WISE*          MOCLDY    61  61 100 CALM      30.00R
JONESVILLE*    CLOUDY    63  63 100 CALM      29.97S
ABINGDON*      CLOUDY    65  65  97 W5        29.96S
BRISTOL        PTCLDY    62  61  96 CALM      29.95S
MORRISTOWN*    CLOUDY    63  63 100 CALM      29.94S
SEVIERVILLE*   CLOUDY    64  63  94 CALM      29.94R
KNOXVILLE      CLOUDY    68  64  87 SW5       29.94R
LAFOLLETTE*    CLOUDY    63  63 100 CALM      29.97S
OAK RIDGE      CLOUDY    67  62  84 CALM      29.96R
CROSSVILLE     MOCLDY    62  60  93 W3        30.01R
NASHVILLE      CLOUDY    68  64  87 W5        29.96S
$$

...KEY TO REMARKS...
VSB - VISIBILITY IN MILES
WCI - WIND CHILL INDEX
HX  - HEAT INDEX

$$



USA.gov is the U.S. government's official web portal to all federal, state and local government web resources and services.